User: anonymous   Login
Location: Unspecified
(0.0000°N, 0.0000°E)
Time: 15:53:33
(UTC+00:00)
Language:

ATS 5 - Orbit

View from above orbital plane
View from above orbital plane
View from above satellite
View from above satellite

Ground track
Ground track

The orbit data is extracted from the following two-line orbital elements,

1  4068U 69069A   19015.68382988 -.00000026 +00000-0 +00000-0 0  9995
2  4068 006.6769 297.9817 0006433 328.5871 281.2387 00.99495365019367
Epoch (UTC): 15 January 2019 16:24:42
Eccentricity: 0.0006433
inclination: 6.6769°
perigee height: 35978 km
apogee height: 36032 km
right ascension of ascending node: 297.9817°
argument of perigee: 328.5871°
revolutions per day: 0.99495365
mean anomaly at epoch: 281.2387°
orbit number at epoch: 1936

The dashed part of the orbit path shows where the satellite is in the earth's shadow,  

DLR